Dundee, United Kingdom

1:26 AM BST on April 24, 2017 (GMT +0100)
Dundee

Weather History for EGPN - September, 2013

Change the Weather History Date:

Sunday, September 8, 2013

  Actual Average Record
Temperature  
Mean Temperature 56 °F -  
Max Temperature 60 °F 58 °F 69 °F (2005)
Min Temperature 53 °F 50 °F 44 °F (2006)
Degree Days  
Heating Degree Days 8    
Growing Degree Days 6 (Base 50)    
Moisture  
Dew Point 48 °F    
Average Humidity 72    
Maximum Humidity 88    
Minimum Humidity 63    
Precipitation  
Precipitation 0.00 in - - ()
Sea Level Pressure  
Sea Level Pressure 29.95 in    
Wind  
Wind Speed 7 mph ()    
Max Wind Speed 12 mph    
Max Gust Speed -    
Visibility 6.2 miles    
Events      
Averages and records for this station are not official NWS values.
T = Trace of Precipitation, MM = Missing Value Source: Averaged Metar Reports

Daily Weather History Graph

Daily Weather History Graph

Search for Another Location

Airport or City:

Trip Planner

Search our weather history database for the weather conditions in past years. The results will help you decide how hot, cold, wet, or windy it might be!

Date:

Astronomy

Sep. 08, 2013 Rise Set
Actual Time 6:29 AM BST 7:48 PM BST
Civil Twilight 5:50 AM BST 8:27 PM BST
Nautical Twilight 5:02 AM BST 9:14 PM BST
Astronomical Twilight 4:08 AM BST 10:08 PM BST
Moon 10:16 AM BST (9/8) 8:26 PM BST (9/8)
Length of Visible Light 14h 36m
Length of Day
13h 19m
Waxing Crescent, 9% of the Moon is Illuminated
Sep 8
Waxing Crescent
Sep 12
First Quarter
Sep 19
Full
Sep 27
Last Quarter
Oct 5
New

Hourly Weather History & Observations

Time (BST) Temp. Dew Point Humidity Pressure Visibility Wind Dir Wind Speed Gust Speed Precip Events Conditions
9:20 AM 53.6 °F 46.4 °F 77% 29.98 in - East 6.9 mph - N/A   Clear
9:50 AM 55.4 °F 46.4 °F 72% 29.98 in 6.2 mi ESE 5.8 mph - N/A   Partly Cloudy
10:20 AM 57.2 °F 46.4 °F 67% 29.98 in 6.2 mi East 4.6 mph - N/A   Partly Cloudy
10:50 AM 57.2 °F 46.4 °F 67% 29.98 in 6.2 mi East 4.6 mph - N/A   Partly Cloudy
11:20 AM 57.2 °F 46.4 °F 67% 29.98 in 6.2 mi East 4.6 mph - N/A   Partly Cloudy
11:50 AM 57.2 °F 46.4 °F 67% 29.98 in 6.2 mi East 10.4 mph - N/A   Partly Cloudy
12:20 PM 59.0 °F 46.4 °F 63% 29.95 in 6.2 mi ENE 10.4 mph - N/A   Partly Cloudy
12:50 PM 59.0 °F 46.4 °F 63% 29.95 in 6.2 mi ENE 10.4 mph - N/A   Partly Cloudy
1:20 PM 59.0 °F 46.4 °F 63% 29.95 in 6.2 mi ENE 11.5 mph - N/A   Partly Cloudy
1:50 PM 59.0 °F 48.2 °F 67% 29.95 in 6.2 mi East 9.2 mph - N/A   Partly Cloudy
2:20 PM 60.8 °F 48.2 °F 63% 29.95 in 6.2 mi East 10.4 mph - N/A   Partly Cloudy
2:50 PM 60.8 °F 48.2 °F 63% 29.95 in 6.2 mi East 9.2 mph - N/A   Partly Cloudy
3:20 PM 60.8 °F 50.0 °F 68% 29.92 in 6.2 mi East 9.2 mph - N/A   Partly Cloudy
3:50 PM 59.0 °F 46.4 °F 63% 29.92 in 6.2 mi East 9.2 mph - N/A   Partly Cloudy
4:20 PM 59.0 °F 48.2 °F 67% 29.92 in 6.2 mi East 9.2 mph - N/A   Partly Cloudy
4:50 PM 59.0 °F 48.2 °F 67% 29.92 in 6.2 mi East 10.4 mph - N/A   Partly Cloudy
5:20 PM 57.2 °F 48.2 °F 72% 29.92 in 6.2 mi East 10.4 mph - N/A   Partly Cloudy
5:50 PM 57.2 °F 48.2 °F 72% 29.92 in 6.2 mi East 10.4 mph - N/A   Partly Cloudy
6:20 PM 57.2 °F 50.0 °F 77% 29.92 in 6.2 mi East 9.2 mph - N/A   Partly Cloudy
6:50 PM 55.4 °F 50.0 °F 82% 29.95 in 6.2 mi East 8.1 mph - N/A   Partly Cloudy
7:20 PM 55.4 °F 50.0 °F 82% 29.92 in 6.2 mi East 8.1 mph - N/A   Partly Cloudy
7:50 PM 53.6 °F 50.0 °F 88% 29.95 in 6.2 mi ENE 8.1 mph - N/A   Scattered Clouds
8:20 PM 55.4 °F 50.0 °F 82% 29.95 in 6.2 mi NE 5.8 mph - N/A   Scattered Clouds
8:50 PM 55.4 °F 50.0 °F 82% 29.95 in 6.2 mi NE 4.6 mph - N/A   Scattered Clouds
9:20 PM 55.4 °F 50.0 °F 82% 29.95 in 6.2 mi NNE 4.6 mph - N/A   Scattered Clouds
9:50 PM 53.6 °F 48.2 °F 82% 29.95 in 6.2 mi NNE 4.6 mph - N/A   Scattered Clouds